Location: ????????
(55.6333°N, 37.7000°E)
Time: 04:24:20
(UTC+00:00)

CZ-2D R/B - Pass Details

Date: 19 May 2025
Orbit: 790 x 841 km, 98.8° (Epoch: 15 June)

Event Time Altitude Azimuth Distance (km) Brightness Sun altitude
Rises 23:45:51 0° 18° (NNE) 3,404 7.1 -8.8°
Reaches altitude 10° 23:48:16 10° 22° (NNE) 2,469 6.2 -8.6°
Maximum altitude 23:53:41 60° 102° (ESE) 967 2.7 -8.1°
Drops below altitude 10° 23:59:05 10° 182° (S) 2,456 4.1 -7.7°
Enters shadow 00:00:23 - 185° (S) 2,960 4.5 -7.6°
